Simultaneous Nadir Overpasses (SNOs) Predictions

Prediction of SNOs between LANDSAT-8 and NOAA-19 Satellite Orbit:

Table of predicted SNOs for the next 14.0 days since TLE Epoch: 6/29/2024
Index Date (LANDSAT-8) Time (LANDSAT-8) Lat,Lon (LANDSAT-8) SZA (LANDSAT-8 ) Date (NOAA-19) Time (NOAA-19) Lat,Lon (NOAA-19) SZA (NOAA-19 ) Distance(km) Time Diff (sec)
1 06/30/2024 00:43:06 -80.65, 23.00 120.94 06/30/2024 00:42:28 -80.65, 23.00 120.95 0.52 38
2 06/30/2024 01:32:31 80.69,-168.96 59.13 06/30/2024 01:33:26 80.69,-168.94 59.16 0.65 55
3 07/02/2024 07:06:16 -80.66, -72.66 120.77 07/02/2024 07:05:20 -80.65, -72.71 120.80 1.30 56
4 07/02/2024 07:55:41 80.69, 95.36 59.30 07/02/2024 07:56:18 80.70, 95.53 59.33 3.02 37
5 07/04/2024 13:29:28 -80.60,-169.16 120.70 07/04/2024 13:28:14 -80.61,-169.20 120.72 1.97 74
6 07/04/2024 14:18:52 80.66, -0.83 59.42 07/04/2024 14:19:12 80.67, -0.80 59.44 1.04 20
7 07/06/2024 20:42:01 80.67, -96.54 59.65 07/06/2024 20:42:04 80.66, -96.51 59.65 0.56 3
8 07/09/2024 03:05:10 80.66, 167.57 59.88 07/09/2024 03:04:56 80.66, 167.69 59.89 2.11 14
9 07/09/2024 03:54:35 -80.71, -24.12 120.01 07/09/2024 03:55:49 -80.70, -24.09 119.99 1.72 74
10 07/11/2024 09:28:19 80.63, 71.50 60.12 07/11/2024 09:27:49 80.63, 71.44 60.11 1.10 30



Historial Predications of SNOs between LANDSAT-8 and NOAA-19
